Tracking 30995 objects as of 5-Jul-2025
HD Live streaming from Space Station
objects crossing your sky now

COSMOS 1275 DEB

Track COSMOS 1275 DEB now!
10-day predictions


NORAD ID: 42189
Int'l Code: 1981-053TD
Perigee: 913.5 km
Apogee: 1,089.8 km
Inclination: 83.0 °
Period: 105.0 minutes
Semi major axis: 7372 km
RCS: Unknown
Launch date: June 4, 1981
Source: Commonwealth of Independent States (former USSR) (CIS)
Launch site: PLESETSK MISSILE AND SPACE COMPLEX (PKMTR)

Note: This is SATELLITE DEBRIS
Your satellite tracking list
STARLINK-2000
Track 1 satellite(s)




NASA's NSSDC Master Catalog

Two Line Element Set (TLE):
1 42189U 81053TD  25180.33889509  .00000652  00000-0  67478-3 0  9990
2 42189  83.0188 189.8162 0119542 306.6877  52.3338 13.71415412560608
Source of the keplerian elements: AFSPC